,,,PA_Meas_PMT16A,,PR_Meas_QMR101_102,,RH_Meas_QMH101,,SR_Meas_QMS101,,TA_Meas_QMH101,,GenWind,,GenWind,
date,time,status,PA,status,PR,status,RH,status,SR,status,TA,status,DirAvg,status,SpdAvg,
2011-08-27, 00:00:04,VALID,1000.45,VALID,0,VALID,57.3213,VALID,0,VALID,28.0142,VALID,190,VALID,4.12383,
2011-08-27, 00:01:04,VALID,1000.44,VALID,0,VALID,57.6418,VALID,0,VALID,27.973,VALID,187,VALID,3.6168,
2011-08-27, 00:02:04,VALID,1000.4,VALID,0,VALID,57.4816,VALID,0,VALID,27.9556,VALID,191,VALID,3.69688,
2011-08-27, 00:03:04,VALID,1000.42,VALID,0,VALID,57.6876,VALID,0,VALID,27.9535,VALID,193,VALID,6.69727,
2011-08-27, 00:04:04,VALID,1000.39,VALID,0,VALID,57.3442,VALID,0,VALID,27.9947,VALID,185,VALID,6.07969,
2011-08-27, 00:05:04,VALID,1000.41,VALID,0,VALID,57.4968,VALID,0,VALID,27.9752,VALID,196,VALID,2.95937,
2011-08-27, 00:06:04,VALID,1000.42,VALID,0,VALID,57.6113,VALID,0,VALID,27.934,VALID,195,VALID,4.52812,
2011-08-27, 00:07:04,VALID,1000.37,VALID,0,VALID,57.5273,VALID,0,VALID,27.9556,VALID,190,VALID,4.42969,
2011-08-27, 00:08:04,VALID,1000.37,VALID,0,VALID,57.4892,VALID,0,VALID,27.973,VALID,169,VALID,5.57656,
2011-08-27, 00:09:04,VALID,1000.41,VALID,0,VALID,57.5731,VALID,0,VALID,27.9556,VALID,185,VALID,4.43789,
2011-08-27, 00:10:04,VALID,1000.33,VALID,0,VALID,57.4282,VALID,0,VALID,27.9361,VALID,198,VALID,4.18203,
2011-08-27, 00:11:04,VALID,1000.37,VALID,0,VALID,57.535,VALID,0,VALID,27.9361,VALID,214,VALID,4.75547,
2011-08-27, 00:12:04,VALID,1000.42,VALID,0,VALID,57.6113,VALID,0,VALID,27.9577,VALID,198,VALID,3.5418,
2011-08-27, 00:13:04,VALID,1000.34,VALID,0,VALID,57.6494,VALID,0,VALID,27.9577,VALID,186,VALID,5.96797,
2011-08-27, 00:14:04,VALID,1000.31,VALID,0,VALID,57.7181,VALID,0,VALID,27.9773,VALID,197,VALID,4.46367,
2011-08-27, 00:15:04,VALID,1000.3,VALID,0,VALID,57.657,VALID,0,VALID,27.9773,VALID,205,VALID,3.15156,
2011-08-27, 00:16:04,VALID,1000.33,VALID,0,VALID,57.7867,VALID,0,VALID,27.9361,VALID,191,VALID,4.40391,
2011-08-27, 00:17:04,VALID,1000.35,VALID,0,VALID,57.8783,VALID,0,VALID,27.9577,VALID,184,VALID,6.21875,
2011-08-27, 00:18:04,VALID,1000.31,VALID,0,VALID,57.7867,VALID,0,VALID,27.9947,VALID,168,VALID,6.8543,
2011-08-27, 00:19:04,VALID,1000.33,VALID,0,VALID,57.8325,VALID,0,VALID,27.9947,VALID,197,VALID,4.70664,
2011-08-27, 00:20:04,VALID,1000.32,VALID,0,VALID,57.9012,VALID,0,VALID,27.9556,VALID,188,VALID,5.07461,
2011-08-27, 00:21:04,VALID,1000.32,VALID,0,VALID,58.1759,VALID,0,VALID,27.9361,VALID,183,VALID,4.69297,
2011-08-27, 00:22:04,VALID,1000.26,VALID,0,VALID,58.2293,VALID,0,VALID,27.9773,VALID,189,VALID,6.49023,
2011-08-27, 00:23:04,VALID,1000.31,VALID,0,VALID,58.0767,VALID,0,VALID,28.0359,VALID,178,VALID,6.39805,
2011-08-27, 00:24:04,VALID,1000.24,VALID,0,VALID,57.863,VALID,0,VALID,28.0338,VALID,179,VALID,7.03594,
2011-08-27, 00:25:04,VALID,1000.22,VALID,0,VALID,57.9393,VALID,0,VALID,28.0728,VALID,172,VALID,6.48594,
2011-08-27, 00:26:04,VALID,1000.24,VALID,0,VALID,58.2598,VALID,0,VALID,28.0554,VALID,167,VALID,4.8832,
2011-08-27, 00:27:04,VALID,1000.28,VALID,0,VALID,58.2216,VALID,0,VALID,28.0142,VALID,185,VALID,5.04844,
2011-08-27, 00:28:04,VALID,1000.26,VALID,0,VALID,58.069,VALID,0,VALID,28.0142,VALID,180,VALID,6.40742,
2011-08-27, 00:29:04,VALID,1000.27,VALID,0,VALID,57.9851,VALID,0,VALID,28.075,VALID,172,VALID,6.17578,
2011-08-27, 00:30:04,VALID,1000.28,VALID,0,VALID,58.0996,VALID,0,VALID,28.0728,VALID,175,VALID,5.48828,
2011-08-27, 00:31:04,VALID,1000.24,VALID,0,VALID,58.0614,VALID,0,VALID,28.0728,VALID,170,VALID,6.3418,
2011-08-27, 00:32:04,VALID,1000.23,VALID,0,VALID,58.0156,VALID,0,VALID,28.0924,VALID,169,VALID,6.63984,
2011-08-27, 00:33:04,VALID,1000.19,VALID,0,VALID,57.9546,VALID,0,VALID,28.114,VALID,187,VALID,5.54023,
2011-08-27, 00:34:04,VALID,1000.17,VALID,0,VALID,58.1072,VALID,0,VALID,28.1119,VALID,176,VALID,5.14805,
2011-08-27, 00:35:04,VALID,1000.23,VALID,0,VALID,58.3208,VALID,0,VALID,28.0554,VALID,180,VALID,5.81328,
2011-08-27, 00:36:04,VALID,1000.12,VALID,0,VALID,57.9927,VALID,0,VALID,28.0554,VALID,159,VALID,6.91406,
2011-08-27, 00:37:04,VALID,1000.15,VALID,0,VALID,58.3895,VALID,0,VALID,28.0359,VALID,184,VALID,6.31523,
2011-08-27, 00:38:04,VALID,1000.19,VALID,0,VALID,58.4734,VALID,0,VALID,28.0142,VALID,159,VALID,6.37266,
2011-08-27, 00:39:04,VALID,1000.2,VALID,0,VALID,58.6794,VALID,0,VALID,27.9577,VALID,182,VALID,5.1168,
2011-08-27, 00:40:04,VALID,1000.18,VALID,0,VALID,58.3056,VALID,0,VALID,27.9752,VALID,174,VALID,6.95039,
2011-08-27, 00:41:04,VALID,1000.19,VALID,0,VALID,58.2521,VALID,0,VALID,28.0164,VALID,201,VALID,4.93711,
2011-08-27, 00:42:04,VALID,1000.15,VALID,0,VALID,58.275,VALID,0,VALID,27.9968,VALID,184,VALID,4.88242,
2011-08-27, 00:43:04,VALID,1000.21,VALID,0,VALID,58.0767,VALID,0,VALID,28.0142,VALID,198,VALID,4.25742,
2011-08-27, 00:44:04,VALID,1000.19,VALID,0,VALID,58.1301,VALID,0,VALID,28.0164,VALID,188,VALID,5.21602,
2011-08-27, 00:45:04,VALID,1000.17,VALID,0,VALID,58.1377,VALID,0,VALID,28.0554,VALID,188,VALID,6.33789,
2011-08-27, 00:46:04,VALID,1000.12,VALID,0,VALID,57.9775,VALID,0,VALID,28.0728,VALID,183,VALID,5.30703,
2011-08-27, 00:47:04,VALID,1000.14,VALID,0,VALID,57.9393,VALID,0,VALID,28.0533,VALID,186,VALID,3.83594,
2011-08-27, 00:48:04,VALID,1000.14,VALID,0,VALID,58.0156,VALID,0,VALID,28.0554,VALID,193,VALID,3.92383,
2011-08-27, 00:49:04,VALID,1000.08,VALID,0,VALID,57.9699,VALID,0,VALID,28.0142,VALID,223,VALID,3.36758,
2011-08-27, 00:50:04,VALID,1000.12,VALID,0,VALID,58.3132,VALID,0,VALID,27.9752,VALID,190,VALID,3.65195,
2011-08-27, 00:51:04,VALID,1000.05,VALID,0,VALID,58.565,VALID,0,VALID,27.9947,VALID,183,VALID,5.60781,
2011-08-27, 00:52:04,VALID,1000.03,VALID,0,VALID,58.565,VALID,0,VALID,27.9947,VALID,179,VALID,5.60391,
2011-08-27, 00:53:04,VALID,999.954,VALID,0,VALID,58.359,VALID,0,VALID,28.0142,VALID,201,VALID,3.48203,
2011-08-27, 00:54:04,VALID,999.943,VALID,0,VALID,58.4429,VALID,0,VALID,27.9752,VALID,197,VALID,4.10508,
2011-08-27, 00:55:04,VALID,999.893,VALID,0,VALID,58.3895,VALID,0,VALID,27.9947,VALID,198,VALID,5.48398,
2011-08-27, 00:56:04,VALID,999.816,VALID,0,VALID,58.5039,VALID,0,VALID,27.9773,VALID,187,VALID,6.00352,
2011-08-27, 00:57:04,VALID,999.93,VALID,0,VALID,58.6107,VALID,0,VALID,27.9752,VALID,197,VALID,4.37969,
2011-08-27, 00:58:04,VALID,999.912,VALID,0,VALID,58.5573,VALID,0,VALID,27.9773,VALID,209,VALID,6.02891,
2011-08-27, 00:59:04,VALID,999.871,VALID,0,VALID,58.6336,VALID,0,VALID,27.9382,VALID,223,VALID,3.40195,
2011-08-27, 01:00:04,VALID,999.882,VALID,0,VALID,58.7862,VALID,0,VALID,27.8775,VALID,211,VALID,4.80352,
2011-08-27, 01:01:04,VALID,999.84,VALID,0,VALID,58.9999,VALID,0,VALID,27.8775,VALID,192,VALID,3.77969,
2011-08-27, 01:02:04,VALID,999.883,VALID,0,VALID,58.9236,VALID,0,VALID,27.8579,VALID,216,VALID,2.62539,
2011-08-27, 01:03:04,VALID,999.87,VALID,0,VALID,58.9007,VALID,0,VALID,27.8579,VALID,201,VALID,4.29258,
2011-08-27, 01:04:04,VALID,999.854,VALID,0,VALID,59.0227,VALID,0,VALID,27.7993,VALID,203,VALID,2.64687,
2011-08-27, 01:05:04,VALID,999.847,VALID,0,VALID,59.2745,VALID,0,VALID,27.7798,VALID,188,VALID,4.40312,
2011-08-27, 01:06:04,VALID,999.853,VALID,0,VALID,59.45,VALID,0,VALID,27.7993,VALID,198,VALID,4.13086,
2011-08-27, 01:07:04,VALID,999.863,VALID,0,VALID,59.2898,VALID,0,VALID,27.8579,VALID,183,VALID,6.5457,
2011-08-27, 01:08:04,VALID,999.81,VALID,0,VALID,59.1524,VALID,0,VALID,27.9577,VALID,182,VALID,6.275,
2011-08-27, 01:09:04,VALID,999.806,VALID,0,VALID,58.9846,VALID,0.112286,VALID,27.934,VALID,206,VALID,4.4082,
2011-08-27, 01:10:04,VALID,999.815,VALID,0,VALID,58.9388,VALID,0,VALID,27.934,VALID,182,VALID,5.30547,
2011-08-27, 01:11:04,VALID,999.846,VALID,0,VALID,59.0151,VALID,0,VALID,27.9752,VALID,175,VALID,5.8793,
2011-08-27, 01:12:04,VALID,999.742,VALID,0,VALID,58.977,VALID,0,VALID,27.9535,VALID,192,VALID,6.3832,
2011-08-27, 01:13:04,VALID,999.789,VALID,0,VALID,58.8167,VALID,0.112286,VALID,28.0316,VALID,174,VALID,5.92227,
2011-08-27, 01:14:04,VALID,999.799,VALID,0,VALID,58.8091,VALID,0.112286,VALID,28.0316,VALID,184,VALID,4.07227,
2011-08-27, 01:15:04,VALID,999.792,VALID,0,VALID,59.1753,VALID,0,VALID,27.9535,VALID,190,VALID,4.7332,
2011-08-27, 01:16:04,VALID,999.775,VALID,0,VALID,59.0761,VALID,0.112286,VALID,27.9752,VALID,196,VALID,4.63047,
2011-08-27, 01:17:04,VALID,999.757,VALID,0,VALID,58.9846,VALID,0,VALID,27.9556,VALID,176,VALID,4.23984,
2011-08-27, 01:18:04,VALID,999.744,VALID,0,VALID,59.2669,VALID,0.112286,VALID,27.9361,VALID,203,VALID,2.49023,
2011-08-27, 01:19:04,VALID,999.721,VALID,0,VALID,59.4195,VALID,0,VALID,27.897,VALID,175,VALID,4.40312,
2011-08-27, 01:20:04,VALID,999.726,VALID,0,VALID,59.4576,VALID,0,VALID,27.8558,VALID,187,VALID,3.59258,
2011-08-27, 01:21:04,VALID,999.684,VALID,0,VALID,59.4958,VALID,0.112286,VALID,27.8363,VALID,181,VALID,3.5375,
2011-08-27, 01:22:04,VALID,999.629,VALID,0,VALID,59.5644,VALID,0,VALID,27.7972,VALID,203,VALID,2.65664,
2011-08-27, 01:23:04,VALID,999.573,VALID,0,VALID,59.6179,VALID,0,VALID,27.7993,VALID,185,VALID,2.7293,
2011-08-27, 01:24:04,VALID,999.595,VALID,0,VALID,59.3584,VALID,0,VALID,27.8168,VALID,200,VALID,3.38242,
2011-08-27, 01:25:04,VALID,999.586,VALID,0,VALID,59.6026,VALID,0.112286,VALID,27.8363,VALID,174,VALID,4.675,
2011-08-27, 01:26:04,VALID,999.565,VALID,0,VALID,59.7781,VALID,0,VALID,27.7972,VALID,177,VALID,3.47891,
2011-08-27, 01:27:04,VALID,999.538,VALID,0,VALID,60.0375,VALID,0.112286,VALID,27.7777,VALID,183,VALID,4.46914,
2011-08-27, 01:28:04,VALID,999.396,VALID,0,VALID,59.5034,VALID,0.112286,VALID,27.8363,VALID,173,VALID,7.48906,
2011-08-27, 01:29:04,VALID,999.515,VALID,0,VALID,59.3966,VALID,0,VALID,27.897,VALID,198,VALID,5.70508,
2011-08-27, 01:30:04,VALID,999.489,VALID,0,VALID,59.3432,VALID,0,VALID,27.9165,VALID,197,VALID,4.6793,
2011-08-27, 01:31:04,VALID,999.459,VALID,0,VALID,59.6331,VALID,0.112286,VALID,27.8754,VALID,187,VALID,4.87656,
2011-08-27, 01:32:04,VALID,999.437,VALID,0,VALID,59.6941,VALID,0.112286,VALID,27.8754,VALID,175,VALID,4.69492,
2011-08-27, 01:33:04,VALID,999.389,VALID,0,VALID,59.8315,VALID,0.112286,VALID,27.8949,VALID,188,VALID,5.92969,
2011-08-27, 01:34:04,VALID,999.381,VALID,0,VALID,60.3808,VALID,0.112286,VALID,27.8754,VALID,181,VALID,6.73828,
2011-08-27, 01:35:04,VALID,999.412,VALID,0,VALID,59.8391,VALID,0,VALID,27.9144,VALID,189,VALID,6.76914,
2011-08-27, 01:36:04,VALID,999.347,VALID,0,VALID,59.1524,VALID,0.112286,VALID,27.934,VALID,182,VALID,6.17969,
2011-08-27, 01:37:04,VALID,999.349,VALID,0,VALID,58.977,VALID,0,VALID,27.9535,VALID,189,VALID,7.11523,
2011-08-27, 01:38:04,VALID,999.335,VALID,0,VALID,58.7557,VALID,0.112286,VALID,28.0121,VALID,177,VALID,6.2418,
2011-08-27, 01:39:04,VALID,999.258,VALID,0,VALID,58.6794,VALID,0,VALID,28.0142,VALID,171,VALID,6.89258,
2011-08-27, 01:40:04,VALID,999.37,VALID,0,VALID,59.2669,VALID,0,VALID,27.9752,VALID,157,VALID,4.49844,
2011-08-27, 01:41:04,VALID,999.331,VALID,0,VALID,59.5339,VALID,0,VALID,27.9165,VALID,166,VALID,5.92188,
2011-08-27, 01:42:04,VALID,999.397,VALID,0,VALID,60.9225,VALID,0,VALID,27.8405,VALID,141,VALID,2.61367,
2011-08-27, 01:43:04,VALID,999.413,VALID,0,VALID,61.6626,VALID,0,VALID,27.6626,VALID,133,VALID,3.08867,
2011-08-27, 01:44:04,VALID,999.325,VALID,0,VALID,61.0446,VALID,0,VALID,27.5454,VALID,159,VALID,4.05664,
2011-08-27, 01:45:04,VALID,999.375,VALID,0,VALID,62.685,VALID,0,VALID,27.4672,VALID,150,VALID,3.87891,
2011-08-27, 01:46:04,VALID,999.349,VALID,0,VALID,64.1956,VALID,0,VALID,27.2329,VALID,139,VALID,2.00703,
2011-08-27, 01:47:04,VALID,999.362,VALID,0,VALID,65.4393,VALID,0,VALID,26.9594,VALID,137,VALID,1.79102,
2011-08-27, 01:48:04,VALID,999.358,VALID,0,VALID,66.3472,VALID,0,VALID,26.7836,VALID,153,VALID,2.17617,
2011-08-27, 01:49:04,VALID,999.355,VALID,0,VALID,66.6447,VALID,0,VALID,26.7055,VALID,151,VALID,2.42422,
2011-08-27, 01:50:04,VALID,999.265,VALID,0,VALID,64.6916,VALID,0,VALID,26.7446,VALID,155,VALID,3.23555,
2011-08-27, 01:51:04,VALID,999.304,VALID,0,VALID,65.6529,VALID,0,VALID,26.8813,VALID,146,VALID,2.50625,
2011-08-27, 01:52:04,VALID,999.244,VALID,0,VALID,64.4474,VALID,0,VALID,26.8813,VALID,165,VALID,4.33086,
2011-08-27, 01:53:04,VALID,999.261,VALID,0,VALID,65.9504,VALID,0,VALID,26.9789,VALID,156,VALID,4.88516,
2011-08-27, 01:54:04,VALID,999.293,VALID,0,VALID,65.5232,VALID,0,VALID,27.018,VALID,163,VALID,3.71484,
2011-08-27, 01:55:04,VALID,999.231,VALID,0,VALID,64.806,VALID,0,VALID,26.9789,VALID,156,VALID,4.5832,
2011-08-27, 01:56:04,VALID,999.21,VALID,0,VALID,63.8294,VALID,0,VALID,26.9594,VALID,161,VALID,4.85781,
2011-08-27, 01:57:04,VALID,999.22,VALID,0,VALID,64.9433,VALID,0,VALID,27.018,VALID,159,VALID,3.87227,
2011-08-27, 01:58:04,VALID,999.205,VALID,0,VALID,64.1498,VALID,0,VALID,26.9789,VALID,175,VALID,4.22305,
2011-08-27, 01:59:04,VALID,999.213,VALID,0,VALID,64.3482,VALID,0,VALID,27.0571,VALID,158,VALID,4.10117,
2011-08-27, 02:00:04,VALID,999.202,VALID,0,VALID,65.0425,VALID,0,VALID,27.018,VALID,172,VALID,3.82617,
2011-08-27, 02:01:04,VALID,999.226,VALID,0,VALID,65.0578,VALID,0,VALID,27.0961,VALID,173,VALID,4.31758,
2011-08-27, 02:02:04,VALID,999.234,VALID,0,VALID,65.0044,VALID,0,VALID,27.0375,VALID,155,VALID,2.83906,
2011-08-27, 02:03:04,VALID,999.231,VALID,0,VALID,65.279,VALID,0,VALID,26.9594,VALID,153,VALID,2.47109,
2011-08-27, 02:04:04,VALID,999.163,VALID,0,VALID,64.0125,VALID,0,VALID,26.9789,VALID,162,VALID,5.17227,
2011-08-27, 02:05:04,VALID,999.087,VALID,0,VALID,64.3558,VALID,0,VALID,27.0571,VALID,146,VALID,4.16523,
2011-08-27, 02:06:04,VALID,999.146,VALID,0,VALID,63.5242,VALID,0,VALID,27.1547,VALID,162,VALID,6.20156,
2011-08-27, 02:07:04,VALID,999.148,VALID,0,VALID,64.0888,VALID,0,VALID,27.1352,VALID,171,VALID,4.51328,
2011-08-27, 02:08:04,VALID,999.112,VALID,0,VALID,63.4556,VALID,0,VALID,27.1547,VALID,173,VALID,4.88906,
2011-08-27, 02:09:04,VALID,999.085,VALID,0,VALID,63.2267,VALID,0,VALID,27.2133,VALID,162,VALID,4.33594,
2011-08-27, 02:10:04,VALID,999.027,VALID,0,VALID,63.1961,VALID,0,VALID,27.1743,VALID,166,VALID,4.30977,
2011-08-27, 02:11:04,VALID,999.054,VALID,0,VALID,63.0207,VALID,0,VALID,27.2133,VALID,169,VALID,4.73047,
2011-08-27, 02:12:04,VALID,999.041,VALID,0,VALID,63.4708,VALID,0,VALID,27.2133,VALID,164,VALID,6.01836,
2011-08-27, 02:13:04,VALID,999.048,VALID,0,VALID,63.6844,VALID,0,VALID,27.2524,VALID,174,VALID,5.03633,
2011-08-27, 02:14:04,VALID,998.989,VALID,0,VALID,62.5629,VALID,0,VALID,27.2915,VALID,186,VALID,5.85469,
2011-08-27, 02:15:04,VALID,998.87,VALID,0,VALID,63.1427,VALID,0,VALID,27.3305,VALID,177,VALID,6.82578,
2011-08-27, 02:16:04,VALID,998.988,VALID,0,VALID,63.4021,VALID,0,VALID,27.35,VALID,179,VALID,5.07773,
2011-08-27, 02:17:04,VALID,998.958,VALID,0,VALID,63.0207,VALID,0,VALID,27.3305,VALID,182,VALID,4.56094,
2011-08-27, 02:18:04,VALID,998.957,VALID,0,VALID,62.9901,VALID,0,VALID,27.35,VALID,173,VALID,5.35859,
2011-08-27, 02:19:04,VALID,998.916,VALID,0,VALID,62.5247,VALID,0,VALID,27.3696,VALID,180,VALID,6.02461,
2011-08-27, 02:20:04,VALID,998.872,VALID,0,VALID,62.0822,VALID,0,VALID,27.4282,VALID,174,VALID,6.00156,
2011-08-27, 02:21:04,VALID,998.87,VALID,0,VALID,61.571,VALID,0,VALID,27.4477,VALID,179,VALID,7.40391,
2011-08-27, 02:22:04,VALID,998.916,VALID,0,VALID,61.9983,VALID,0,VALID,27.5063,VALID,181,VALID,5.00234,
2011-08-27, 02:23:04,VALID,998.886,VALID,0,VALID,61.4337,VALID,0,VALID,27.5258,VALID,177,VALID,6.80156,
2011-08-27, 02:24:04,VALID,998.886,VALID,0,VALID,61.4566,VALID,0,VALID,27.5454,VALID,178,VALID,6.38828,
2011-08-27, 02:25:04,VALID,998.844,VALID,0,VALID,61.3727,VALID,0,VALID,27.5845,VALID,172,VALID,6.86055,
2011-08-27, 02:26:04,VALID,998.868,VALID,0,VALID,60.5944,VALID,0,VALID,27.604,VALID,176,VALID,7.44336,
2011-08-27, 02:27:04,VALID,998.817,VALID,0,VALID,60.686,VALID,0,VALID,27.604,VALID,174,VALID,6.05,
2011-08-27, 02:28:04,VALID,998.914,VALID,0,VALID,60.4953,VALID,0,VALID,27.6431,VALID,178,VALID,6.82852,
2011-08-27, 02:29:04,VALID,998.864,VALID,0,VALID,60.5181,VALID,0,VALID,27.6431,VALID,159,VALID,5.18594,
2011-08-27, 02:30:04,VALID,998.889,VALID,0,VALID,60.3427,VALID,0,VALID,27.6431,VALID,181,VALID,6.95352,
2011-08-27, 02:31:04,VALID,998.936,VALID,0,VALID,60.1977,VALID,0,VALID,27.604,VALID,174,VALID,6.35781,
2011-08-27, 02:32:04,VALID,998.902,VALID,0,VALID,60.3045,VALID,0,VALID,27.6431,VALID,165,VALID,5.66836,
2011-08-27, 02:33:04,VALID,998.917,VALID,0,VALID,60.2664,VALID,0,VALID,27.6235,VALID,171,VALID,6.70625,
2011-08-27, 02:34:04,VALID,998.942,VALID,0,VALID,60.3198,VALID,0,VALID,27.6452,VALID,155,VALID,5.12305,
2011-08-27, 02:35:04,VALID,998.903,VALID,0,VALID,60.2816,VALID,0,VALID,27.5845,VALID,168,VALID,5.26445,
2011-08-27, 02:36:04,VALID,998.998,VALID,0,VALID,60.4418,VALID,0,VALID,27.6235,VALID,156,VALID,5.35859,
2011-08-27, 02:37:04,VALID,998.874,VALID,0,VALID,59.7628,VALID,0,VALID,27.6626,VALID,176,VALID,7.89258,
2011-08-27, 02:38:04,VALID,998.932,VALID,0,VALID,59.4958,VALID,0,VALID,27.7603,VALID,167,VALID,8.21016,
2011-08-27, 02:39:04,VALID,998.995,VALID,0,VALID,63.0741,VALID,0,VALID,27.5845,VALID,112,VALID,3.2625,
2011-08-27, 02:40:04,VALID,998.945,VALID,0,VALID,65.8207,VALID,0,VALID,26.9985,VALID,124,VALID,2.25156,
2011-08-27, 02:41:04,VALID,998.997,VALID,0,VALID,66.5608,VALID,0,VALID,26.4927,VALID,163,VALID,2.38516,
2011-08-27, 02:42:04,VALID,999.011,VALID,0,VALID,68.0104,VALID,0,VALID,26.2759,VALID,137,VALID,2.43789,
2011-08-27, 02:43:04,VALID,999.001,VALID,0,VALID,67.1864,VALID,0,VALID,26.0611,VALID,160,VALID,3.05078,
2011-08-27, 02:44:04,VALID,999.012,VALID,0,VALID,68.6361,VALID,0,VALID,26.1197,VALID,122,VALID,1.84453,
2011-08-27, 02:45:04,VALID,998.967,VALID,0,VALID,70.2535,VALID,0,VALID,25.9264,VALID,98,VALID,2.04063,
2011-08-27, 02:46:04,VALID,998.949,VALID,0,VALID,70.2383,VALID,0,VALID,25.6316,VALID,189,VALID,1.80742,
2011-08-27, 02:47:04,VALID,998.974,VALID,0,VALID,70.9173,VALID,0,VALID,25.614,VALID,123,VALID,2.56133,
2011-08-27, 02:48:04,VALID,999.023,VALID,0,VALID,69.9789,VALID,0,VALID,25.5164,VALID,157,VALID,2.5207,
2011-08-27, 02:49:04,VALID,999.009,VALID,0,VALID,67.0796,VALID,0,VALID,25.983,VALID,137,VALID,2.79453,
2011-08-27, 02:50:04,VALID,999.046,VALID,0,VALID,69.7805,VALID,0,VALID,26.0241,VALID,86,VALID,2.56758,
2011-08-27, 02:51:04,VALID,999.037,VALID,0,VALID,71.1386,VALID,0,VALID,25.7097,VALID,81,VALID,1.28594,
2011-08-27, 02:52:04,VALID,999.065,VALID,0,VALID,70.2612,VALID,0,VALID,25.5555,VALID,147,VALID,2.36289,
2011-08-27, 02:53:04,VALID,999.094,VALID,0,VALID,69.9712,VALID,0,VALID,25.5535,VALID,117,VALID,1.39883,
2011-08-27, 02:54:04,VALID,999.068,VALID,0,VALID,69.9102,VALID,0,VALID,25.5926,VALID,117,VALID,1.35703,
2011-08-27, 02:55:04,VALID,999.101,VALID,0,VALID,70.0094,VALID,0,VALID,25.5926,VALID,125,VALID,2.00703,
2011-08-27, 02:56:04,VALID,999.098,VALID,0,VALID,70.574,VALID,0,VALID,25.5945,VALID,99,VALID,1.60625,
2011-08-27, 02:57:04,VALID,999.072,VALID,0,VALID,69.1701,VALID,0,VALID,25.7702,VALID,103,VALID,2.87734,
2011-08-27, 02:58:04,VALID,999.098,VALID,0,VALID,69.5364,VALID,0,VALID,25.9069,VALID,95,VALID,1.68672,
2011-08-27, 02:59:04,VALID,999.073,VALID,0,VALID,69.2693,VALID,0,VALID,25.8288,VALID,144,VALID,2.00664,
2011-08-27, 03:00:04,VALID,999.061,VALID,0,VALID,69.9789,VALID,0,VALID,25.7897,VALID,113,VALID,0.678516,
2011-08-27, 03:01:04,VALID,999.035,VALID,0,VALID,69.8721,VALID,0,VALID,25.7312,VALID,110,VALID,1.19414,
2011-08-27, 03:02:04,VALID,999.049,VALID,0,VALID,70.1772,VALID,0,VALID,25.6707,VALID,109,VALID,1.5875,
2011-08-27, 03:03:04,VALID,999.023,VALID,0,VALID,69.8797,VALID,0,VALID,25.614,VALID,141,VALID,2.11602,
2011-08-27, 03:04:04,VALID,999.049,VALID,0,VALID,67.7968,VALID,0,VALID,25.9069,VALID,150,VALID,3.47969,
2011-08-27, 03:05:04,VALID,999.083,VALID,0,VALID,69.4448,VALID,0,VALID,26.0826,VALID,87,VALID,2.18711,
2011-08-27, 03:06:04,VALID,999.074,VALID,0,VALID,70.5511,VALID,0,VALID,25.9069,VALID,65,VALID,1.25391,
2011-08-27, 03:07:04,VALID,999.059,VALID,0,VALID,71.1004,VALID,0,VALID,25.6921,VALID,190,VALID,1.91523,
2011-08-27, 03:08:04,VALID,999.081,VALID,0,VALID,70.6427,VALID,0,VALID,25.6726,VALID,128,VALID,2.22695,
2011-08-27, 03:09:04,VALID,999.081,VALID,0,VALID,71.4895,VALID,0,VALID,25.6336,VALID,103,VALID,1.41133,
2011-08-27, 03:10:04,VALID,999.096,VALID,0,VALID,72.016,VALID,0,VALID,25.4969,VALID,116,VALID,1.80664,
2011-08-27, 03:11:04,VALID,999.043,VALID,0,VALID,72.7103,VALID,0,VALID,25.3388,VALID,109,VALID,2.1875,
2011-08-27, 03:12:04,VALID,999.061,VALID,0,VALID,70.368,VALID,0,VALID,25.5945,VALID,153,VALID,3.58867,
2011-08-27, 03:13:04,VALID,999.081,VALID,0,VALID,70.017,VALID,0,VALID,25.7702,VALID,143,VALID,1.3,
2011-08-27, 03:14:04,VALID,999.045,VALID,0,VALID,68.514,VALID,0,VALID,25.8464,VALID,149,VALID,3.08555,
2011-08-27, 03:15:04,VALID,999.069,VALID,0,VALID,67.3619,VALID,0,VALID,26.1998,VALID,150,VALID,3.84219,
2011-08-27, 03:16:04,VALID,999.03,VALID,0,VALID,66.0954,VALID,0,VALID,26.3951,VALID,177,VALID,2.23945,
2011-08-27, 03:17:04,VALID,999.05,VALID,0,VALID,64.6381,VALID,0,VALID,26.6685,VALID,190,VALID,3.15313,
2011-08-27, 03:18:04,VALID,998.961,VALID,0,VALID,63.3106,VALID,0,VALID,26.981,VALID,167,VALID,5.56875,
2011-08-27, 03:19:04,VALID,999.047,VALID,0,VALID,62.5018,VALID,0,VALID,27.2349,VALID,177,VALID,5.0125,
2011-08-27, 03:20:04,VALID,999.021,VALID,0,VALID,62.0898,VALID,0,VALID,27.3521,VALID,181,VALID,3.34219,
2011-08-27, 03:21:04,VALID,999.024,VALID,0,VALID,61.7084,VALID,0,VALID,27.4086,VALID,205,VALID,3.4332,
2011-08-27, 03:22:04,VALID,998.935,VALID,0,VALID,61.4413,VALID,0,VALID,27.5279,VALID,187,VALID,5.74609,
2011-08-27, 03:23:04,VALID,998.963,VALID,0,VALID,61.2964,VALID,0,VALID,27.6061,VALID,183,VALID,5.16172,
2011-08-27, 03:24:04,VALID,998.956,VALID,0,VALID,61.1209,VALID,0,VALID,27.5845,VALID,183,VALID,5.2543,
2011-08-27, 03:25:04,VALID,998.931,VALID,0,VALID,61.0141,VALID,0,VALID,27.604,VALID,183,VALID,4.74219,
2011-08-27, 03:26:04,VALID,998.929,VALID,0,VALID,61.1743,VALID,0,VALID,27.6061,VALID,185,VALID,4.75,
2011-08-27, 03:27:04,VALID,998.935,VALID,0,VALID,61.2201,VALID,0,VALID,27.604,VALID,184,VALID,4.78672,
2011-08-27, 03:28:04,VALID,998.947,VALID,0,VALID,61.1896,VALID,0,VALID,27.5845,VALID,180,VALID,4.67305,
2011-08-27, 03:29:04,VALID,998.969,VALID,0,VALID,61.098,VALID,0,VALID,27.6061,VALID,185,VALID,5.52656,
2011-08-27, 03:30:04,VALID,998.94,VALID,0,VALID,61.1743,VALID,0,VALID,27.604,VALID,161,VALID,5.57109,
2011-08-27, 03:31:04,VALID,998.931,VALID,0,VALID,60.9836,VALID,0.112286,VALID,27.6842,VALID,183,VALID,4.70156,
2011-08-27, 03:32:04,VALID,998.995,VALID,0,VALID,61.0675,VALID,0,VALID,27.6452,VALID,168,VALID,4.16758,
2011-08-27, 03:33:04,VALID,998.952,VALID,0,VALID,60.8081,VALID,0,VALID,27.6647,VALID,175,VALID,5.20742,
2011-08-27, 03:34:04,VALID,998.986,VALID,0,VALID,61.0217,VALID,0,VALID,27.6626,VALID,169,VALID,4.77773,
2011-08-27, 03:35:04,VALID,999.019,VALID,0,VALID,62.891,VALID,0,VALID,27.4693,VALID,144,VALID,2.65781,
2011-08-27, 03:36:04,VALID,999.026,VALID,0,VALID,65.2333,VALID,0,VALID,26.9985,VALID,129,VALID,1.54258,
2011-08-27, 03:37:04,VALID,999.016,VALID,0,VALID,66.9423,VALID,0,VALID,26.5904,VALID,135,VALID,2.72109,
2011-08-27, 03:38:04,VALID,999.033,VALID,0,VALID,69.0175,VALID,0,VALID,26.1803,VALID,119,VALID,2.63516,
2011-08-27, 03:39:04,VALID,999.01,VALID,0,VALID,70.7952,VALID,0,VALID,25.7683,VALID,112,VALID,2.38945,
2011-08-27, 03:40:04,VALID,999.025,VALID,0,VALID,71.6269,VALID,0,VALID,25.4364,VALID,129,VALID,1.80039,
2011-08-27, 03:41:04,VALID,999.039,VALID,0,VALID,72.2067,VALID,0,VALID,25.3973,VALID,91,VALID,1.93047,
2011-08-27, 03:42:04,VALID,999.033,VALID,0,VALID,73.5419,VALID,0,VALID,25.2217,VALID,97,VALID,2.10547,
2011-08-27, 03:43:04,VALID,999.045,VALID,0,VALID,73.3359,VALID,0,VALID,25.0869,VALID,150,VALID,1.19141,
2011-08-27, 03:44:04,VALID,999.062,VALID,0,VALID,73.107,VALID,0,VALID,25.046,VALID,179,VALID,1.75039,
2011-08-27, 03:45:04,VALID,999.065,VALID,0,VALID,70.6732,VALID,0,VALID,25.4559,VALID,190,VALID,2.25078,